Location: Chiroubles
(46.1812°N, 4.6660°E)
Time: 15:29:31
(UTC+00:00)

Transit 4A - Pass Details

Date: 07 December 2020
Orbit: 864 x 980 km, 66.8° (Epoch: 26 January)

Event Time Altitude Azimuth Distance (km) Brightness Sun altitude
Rises 09:08:11 0° 290° (WNW) 3,680 10.5 13.7°
Reaches altitude 10° 09:12:27 10° 317° (NW) 2,740 9.8 14.1°
Maximum altitude 09:15:22 13° 344° (NNW) 2,510 9.7 14.4°
Drops below altitude 10° 09:18:17 10° 12° (NNE) 2,737 10.0 14.7°
Sets 09:22:33 0° 38° (NE) 3,675 10.8 15.1°
